Location: East Irvine
(33.6759°N, 117.7598°W)
Time: 00:48:28
(UTC+00:00)

Cosmos 407 Rocket - Pass Details

Date: 15 November 2025
Orbit: 740 x 780 km, 74.0° (Epoch: 07 December)

Event Time Altitude Azimuth Distance (km) Brightness Sun altitude
Rises 01:34:40 0° 195° (SSW) 3,219 7.2 -10.0°
Reaches altitude 10° 01:37:03 10° 195° (SSW) 2,290 6.4 -10.4°
Maximum altitude 01:42:15 89° 110° (ESE) 762 3.5 -11.5°
Drops below altitude 10° 01:47:25 10° 17° (NNE) 2,277 5.7 -12.5°
Sets 01:49:47 0° 18° (NNE) 3,199 6.4 -13.0°
